Time,TemperatureF,DewpointF,PressureIn,WindDirection,WindDirectionDegrees,WindSpeedMPH,WindSpeedGustMPH,Humidity,HourlyPrecipIn,Conditions,Clouds,dailyrainin,SoftwareType,DateUTC
2013-09-08 00:00:00,66.6,64.5,29.93,NNE,26,9.0,19.0,93,0.00,,CLR,0.00,VWS V14.01,2013-09-08 05:00:00,
2013-09-08 00:01:00,66.5,64.4,29.93,NNE,32,10.0,15.0,93,0.00,,OVC035,0.00,VWS V14.01,2013-09-08 05:01:00,
2013-09-08 00:05:00,66.5,64.4,29.93,NW,326,9.0,17.0,93,0.00,,CLR,0.00,VWS V14.01,2013-09-08 05:05:00,
2013-09-08 00:06:00,66.3,63.9,29.93,NNE,15,12.0,20.0,92,0.00,,OVC035,0.00,VWS V14.01,2013-09-08 05:06:00,
2013-09-08 00:10:00,66.2,63.8,29.93,West,271,8.0,20.0,92,0.00,,CLR,0.00,VWS V14.01,2013-09-08 05:10:00,
2013-09-08 00:12:00,66.1,63.7,29.93,West,278,6.0,18.0,92,0.00,,OVC035,0.00,VWS V14.01,2013-09-08 05:12:00,
2013-09-08 00:15:00,66.0,63.6,29.94,NNE,23,4.0,19.0,92,0.00,,CLR,0.00,VWS V14.01,2013-09-08 05:15:00,
2013-09-08 00:17:00,66.0,63.6,29.94,NNE,30,6.0,14.0,92,0.00,,OVC035,0.00,VWS V14.01,2013-09-08 05:17:00,
2013-09-08 00:20:00,66.0,63.6,29.94,NNE,17,7.0,13.0,92,0.00,,CLR,0.00,VWS V14.01,2013-09-08 05:20:00,
2013-09-08 00:22:00,66.0,63.6,29.94,North,360,9.0,18.0,92,0.00,,OVC035,0.00,VWS V14.01,2013-09-08 05:22:00,
2013-09-08 00:25:00,65.9,63.5,29.94,North,360,8.0,18.0,92,0.00,,CLR,0.00,VWS V14.01,2013-09-08 05:25:00,
2013-09-08 00:27:00,65.9,63.5,29.94,SW,231,6.0,15.0,92,0.00,,OVC035,0.00,VWS V14.01,2013-09-08 05:27:00,
2013-09-08 00:30:00,65.9,63.5,29.94,NE,40,13.0,17.0,92,0.00,,CLR,0.00,VWS V14.01,2013-09-08 05:30:00,
2013-09-08 00:32:00,65.9,63.5,29.94,NNE,27,13.0,17.0,92,0.00,,OVC010,0.00,VWS V14.01,2013-09-08 05:32:00,
2013-09-08 00:35:00,65.9,63.5,29.94,NNW,327,0.0,14.0,92,0.00,,CLR,0.00,VWS V14.01,2013-09-08 05:35:00,
2013-09-08 00:37:00,65.9,63.5,29.94,NNE,13,3.0,22.0,92,0.00,,OVC010,0.00,VWS V14.01,2013-09-08 05:37:00,
2013-09-08 00:40:00,65.9,63.5,29.94,NW,325,10.0,22.0,92,0.00,,OVC016,0.00,VWS V14.01,2013-09-08 05:40:00,
2013-09-08 00:42:00,65.9,63.5,29.94,North,5,5.0,20.0,92,0.00,,OVC010,0.00,VWS V14.01,2013-09-08 05:42:00,
2013-09-08 00:45:00,65.9,63.5,29.94,NE,40,7.0,20.0,92,0.00,,OVC016,0.00,VWS V14.01,2013-09-08 05:45:00,
2013-09-08 00:47:00,65.9,63.5,29.94,NNW,343,6.0,16.0,92,0.00,,OVC010,0.00,VWS V14.01,2013-09-08 05:47:00,
2013-09-08 00:50:00,65.9,63.5,29.94,North,355,12.0,21.0,92,0.00,,CLR,0.00,VWS V14.01,2013-09-08 05:50:00,
2013-09-08 00:52:00,66.0,63.6,29.94,North,360,7.0,21.0,92,0.00,,OVC010,0.00,VWS V14.01,2013-09-08 05:52:00,
2013-09-08 00:55:00,66.1,63.7,29.94,NNE,17,10.0,18.0,92,0.00,,CLR,0.00,VWS V14.01,2013-09-08 05:55:00,
2013-09-08 00:57:00,66.2,63.8,29.94,NE,36,14.0,18.0,92,0.00,,OVC010,0.00,VWS V14.01,2013-09-08 05:57:00,
2013-09-08 01:00:00,66.2,63.8,29.94,North,355,5.0,19.0,92,0.00,,CLR,0.00,VWS V14.01,2013-09-08 06:00:00,
2013-09-08 01:02:00,66.2,63.8,29.94,NE,53,9.0,19.0,92,0.00,,OVC010,0.00,VWS V14.01,2013-09-08 06:02:00,
2013-09-08 01:05:00,66.3,63.9,29.94,NNE,26,8.0,15.0,92,0.00,,CLR,0.00,VWS V14.01,2013-09-08 06:05:00,
2013-09-08 01:07:00,66.3,63.9,29.94,NNE,15,6.0,18.0,92,0.00,,OVC010,0.00,VWS V14.01,2013-09-08 06:07:00,
2013-09-08 01:10:00,66.3,63.9,29.94,North,360,12.0,18.0,92,0.00,,CLR,0.00,VWS V14.01,2013-09-08 06:10:00,
2013-09-08 01:12:00,66.3,63.9,29.94,East,94,5.0,17.0,92,0.00,,OVC010,0.00,VWS V14.01,2013-09-08 06:12:00,
2013-09-08 01:15:00,66.4,64.0,29.94,NE,38,12.0,16.0,92,0.00,,CLR,0.00,VWS V14.01,2013-09-08 06:15:00,
2013-09-08 01:17:00,66.4,64.0,29.94,NE,46,8.0,15.0,92,0.00,,OVC010,0.00,VWS V14.01,2013-09-08 06:17:00,
2013-09-08 01:20:00,66.3,63.6,29.94,NNW,334,3.0,16.0,91,0.00,,CLR,0.00,VWS V14.01,2013-09-08 06:20:00,
2013-09-08 01:22:00,66.3,63.6,29.94,NE,40,7.0,18.0,91,0.00,,OVC010,0.00,VWS V14.01,2013-09-08 06:22:00,
2013-09-08 01:25:00,66.3,63.6,29.94,North,10,12.0,19.0,91,0.00,,CLR,0.00,VWS V14.01,2013-09-08 06:25:00,
2013-09-08 01:27:00,66.2,63.5,29.94,NNE,13,8.0,19.0,91,0.00,,OVC010,0.00,VWS V14.01,2013-09-08 06:27:00,
2013-09-08 01:30:00,66.2,63.5,29.94,NE,46,10.0,14.0,91,0.00,,CLR,0.00,VWS V14.01,2013-09-08 06:30:00,
2013-09-08 01:32:00,66.2,63.5,29.94,NE,55,10.0,18.0,91,0.00,,OVC010,0.00,VWS V14.01,2013-09-08 06:32:00,
2013-09-08 01:35:00,66.1,63.4,29.94,ENE,71,11.0,18.0,91,0.00,,CLR,0.00,VWS V14.01,2013-09-08 06:35:00,
2013-09-08 01:37:00,66.0,63.3,29.94,North,349,7.0,15.0,91,0.00,,OVC010,0.00,VWS V14.01,2013-09-08 06:37:00,
2013-09-08 01:40:00,66.0,63.3,29.94,NE,43,9.0,19.0,91,0.00,,CLR,0.00,VWS V14.01,2013-09-08 06:40:00,
2013-09-08 01:43:00,65.9,63.2,29.94,NNE,12,6.0,18.0,91,0.00,,OVC010,0.00,VWS V14.01,2013-09-08 06:43:00,
2013-09-08 01:45:00,65.9,63.2,29.94,North,5,11.0,18.0,91,0.00,,CLR,0.00,VWS V14.01,2013-09-08 06:45:00,
2013-09-08 01:48:00,65.8,63.1,29.94,NE,38,13.0,17.0,91,0.00,,OVC010,0.00,VWS V14.01,2013-09-08 06:48:00,
2013-09-08 01:50:00,65.8,63.1,29.94,NE,51,10.0,17.0,91,0.00,,CLR,0.00,VWS V14.01,2013-09-08 06:50:00,
2013-09-08 01:53:00,65.8,63.1,29.94,NNE,17,1.0,19.0,91,0.00,,OVC010,0.00,VWS V14.01,2013-09-08 06:53:00,
2013-09-08 01:55:00,65.8,63.1,29.94,NNE,28,6.0,19.0,91,0.00,,CLR,0.00,VWS V14.01,2013-09-08 06:55:00,
2013-09-08 01:58:00,65.7,63.0,29.95,NNE,24,12.0,14.0,91,0.00,,OVC010,0.00,VWS V14.01,2013-09-08 06:58:00,
2013-09-08 02:00:00,65.7,63.0,29.95,NE,40,10.0,14.0,91,0.00,,CLR,0.00,VWS V14.01,2013-09-08 07:00:00,
2013-09-08 02:03:00,65.7,63.0,29.94,North,350,10.0,17.0,91,0.00,,OVC012,0.00,VWS V14.01,2013-09-08 07:03:00,
2013-09-08 02:05:00,65.7,63.0,29.94,NNE,13,13.0,17.0,91,0.00,,CLR,0.00,VWS V14.01,2013-09-08 07:05:00,
2013-09-08 02:08:00,65.7,63.0,29.94,NNE,15,5.0,18.0,91,0.00,,OVC012,0.00,VWS V14.01,2013-09-08 07:08:00,
2013-09-08 02:10:00,65.7,63.0,29.94,NW,321,0.0,15.0,91,0.00,,CLR,0.00,VWS V14.01,2013-09-08 07:10:00,
2013-09-08 02:13:00,65.6,62.9,29.94,NNE,16,0.0,14.0,91,0.00,,OVC012,0.00,VWS V14.01,2013-09-08 07:13:00,
2013-09-08 02:15:00,65.6,62.9,29.94,NNE,18,0.0,14.0,91,0.00,,CLR,0.00,VWS V14.01,2013-09-08 07:15:00,
2013-09-08 02:18:00,65.6,62.9,29.94,NNE,32,7.0,11.0,91,0.00,,OVC012,0.00,VWS V14.01,2013-09-08 07:18:00,
2013-09-08 02:20:00,65.6,62.9,29.94,North,11,7.0,15.0,91,0.00,,CLR,0.00,VWS V14.01,2013-09-08 07:20:00,
2013-09-08 02:23:00,65.5,62.5,29.94,NNE,20,10.0,14.0,90,0.00,,OVC012,0.00,VWS V14.01,2013-09-08 07:23:00,
2013-09-08 02:25:00,65.5,62.5,29.94,NNE,19,5.0,12.0,90,0.00,,CLR,0.00,VWS V14.01,2013-09-08 07:25:00,
2013-09-08 02:28:00,65.5,62.5,29.94,NNE,21,10.0,12.0,90,0.00,,OVC012,0.00,VWS V14.01,2013-09-08 07:28:00,
2013-09-08 02:30:00,65.5,62.5,29.94,North,9,9.0,16.0,90,0.00,,CLR,0.00,VWS V14.01,2013-09-08 07:30:00,
2013-09-08 02:33:00,65.5,62.5,29.94,NE,51,6.0,12.0,90,0.00,,OVC012,0.00,VWS V14.01,2013-09-08 07:33:00,
2013-09-08 02:35:00,65.5,62.5,29.94,NNE,27,11.0,12.0,90,0.00,,CLR,0.00,VWS V14.01,2013-09-08 07:35:00,
2013-09-08 02:38:00,65.5,62.5,29.94,North,355,0.0,14.0,90,0.00,,OVC012,0.00,VWS V14.01,2013-09-08 07:38:00,
2013-09-08 02:40:00,65.5,62.5,29.94,NNE,17,0.0,12.0,90,0.00,,CLR,0.00,VWS V14.01,2013-09-08 07:40:00,
2013-09-08 02:43:00,65.5,62.5,29.94,NNW,342,0.0,13.0,90,0.00,,OVC012,0.00,VWS V14.01,2013-09-08 07:43:00,
2013-09-08 02:45:00,65.5,62.5,29.94,North,350,4.0,13.0,90,0.00,,CLR,0.00,VWS V14.01,2013-09-08 07:45:00,
2013-09-08 02:48:00,65.5,62.5,29.94,North,5,8.0,14.0,90,0.00,,OVC012,0.00,VWS V14.01,2013-09-08 07:48:00,
2013-09-08 02:50:00,65.5,62.5,29.94,NNE,24,13.0,14.0,90,0.00,,CLR,0.00,VWS V14.01,2013-09-08 07:50:00,
2013-09-08 02:53:00,65.5,62.5,29.94,NNE,15,0.0,14.0,90,0.00,,OVC012,0.00,VWS V14.01,2013-09-08 07:53:00,
2013-09-08 02:55:00,65.5,62.5,29.94,NNE,27,5.0,14.0,90,0.00,,CLR,0.00,VWS V14.01,2013-09-08 07:55:00,
2013-09-08 02:58:00,65.5,62.5,29.94,NNW,342,5.0,16.0,90,0.00,,OVC012,0.00,VWS V14.01,2013-09-08 07:58:00,
2013-09-08 03:00:00,65.5,62.5,29.94,North,360,15.0,16.0,90,0.00,,CLR,0.00,VWS V14.01,2013-09-08 08:00:00,
2013-09-08 03:03:00,65.5,62.5,29.95,NE,40,3.0,11.0,90,0.00,,OVC014,0.00,VWS V14.01,2013-09-08 08:03:00,
2013-09-08 03:05:00,65.5,62.5,29.95,NW,320,0.0,11.0,90,0.00,,CLR,0.00,VWS V14.01,2013-09-08 08:05:00,
2013-09-08 03:08:00,65.5,62.5,29.95,NNE,25,9.0,11.0,90,0.00,,OVC014,0.00,VWS V14.01,2013-09-08 08:08:00,
2013-09-08 03:10:00,65.5,62.5,29.95,NNE,30,8.0,11.0,90,0.00,,CLR,0.00,VWS V14.01,2013-09-08 08:10:00,
2013-09-08 03:13:00,65.4,62.1,29.95,North,360,0.0,14.0,89,0.00,,OVC014,0.00,VWS V14.01,2013-09-08 08:13:00,
2013-09-08 03:15:00,65.4,62.4,29.95,NE,50,0.0,14.0,90,0.00,,CLR,0.00,VWS V14.01,2013-09-08 08:15:00,
2013-09-08 03:18:00,65.4,62.4,29.95,North,360,6.0,13.0,90,0.00,,OVC014,0.00,VWS V14.01,2013-09-08 08:18:00,
2013-09-08 03:20:00,65.4,62.1,29.95,NNW,341,8.0,13.0,89,0.00,,CLR,0.00,VWS V14.01,2013-09-08 08:20:00,
2013-09-08 03:24:00,65.4,62.4,29.95,NNE,26,13.0,18.0,90,0.00,,OVC014,0.00,VWS V14.01,2013-09-08 08:24:00,
2013-09-08 03:25:00,65.3,62.3,29.95,NNW,348,3.0,18.0,90,0.00,,CLR,0.00,VWS V14.01,2013-09-08 08:25:00,
2013-09-08 03:29:00,65.3,62.0,29.95,North,5,10.0,14.0,89,0.00,,OVC014,0.00,VWS V14.01,2013-09-08 08:29:00,
2013-09-08 03:30:00,65.3,62.0,29.95,NNW,341,3.0,14.0,89,0.00,,CLR,0.00,VWS V14.01,2013-09-08 08:30:00,
2013-09-08 03:34:00,65.2,62.2,29.95,North,360,8.0,10.0,90,0.00,,OVC014,0.00,VWS V14.01,2013-09-08 08:34:00,
2013-09-08 03:35:00,65.2,62.2,29.95,NW,314,10.0,11.0,90,0.00,,CLR,0.00,VWS V14.01,2013-09-08 08:35:00,
2013-09-08 03:39:00,65.2,62.2,29.96,NNE,25,5.0,15.0,90,0.00,,OVC014,0.00,VWS V14.01,2013-09-08 08:39:00,
2013-09-08 03:40:00,65.2,62.2,29.96,NW,320,8.0,15.0,90,0.00,,CLR,0.00,VWS V14.01,2013-09-08 08:40:00,
2013-09-08 03:44:00,65.2,62.2,29.96,NNW,347,3.0,15.0,90,0.00,,OVC014,0.00,VWS V14.01,2013-09-08 08:44:00,
2013-09-08 03:45:00,65.2,62.2,29.96,North,355,5.0,15.0,90,0.00,,CLR,0.00,VWS V14.01,2013-09-08 08:45:00,
2013-09-08 03:49:00,65.1,62.1,29.96,NNE,31,12.0,15.0,90,0.00,,OVC014,0.00,VWS V14.01,2013-09-08 08:49:00,
2013-09-08 03:50:00,65.1,62.1,29.96,North,9,10.0,15.0,90,0.00,,CLR,0.00,VWS V14.01,2013-09-08 08:50:00,
2013-09-08 03:54:00,65.1,62.1,29.96,North,5,9.0,12.0,90,0.00,,OVC014,0.00,VWS V14.01,2013-09-08 08:54:00,
2013-09-08 03:55:00,65.1,62.1,29.96,North,5,9.0,12.0,90,0.00,,CLR,0.00,VWS V14.01,2013-09-08 08:55:00,
2013-09-08 03:59:00,65.1,62.1,29.96,North,360,5.0,12.0,90,0.00,,OVC014,0.00,VWS V14.01,2013-09-08 08:59:00,
2013-09-08 04:00:00,65.1,62.1,29.96,North,360,5.0,12.0,90,0.00,,CLR,0.00,VWS V14.01,2013-09-08 09:00:00,
2013-09-08 04:04:00,65.1,62.1,29.96,NNE,19,9.0,14.0,90,0.00,,OVC014,0.00,VWS V14.01,2013-09-08 09:04:00,
2013-09-08 04:05:00,65.1,62.1,29.96,NNE,19,9.0,14.0,90,0.00,,CLR,0.00,VWS V14.01,2013-09-08 09:05:00,
2013-09-08 04:09:00,65.1,62.1,29.96,ENE,68,9.0,18.0,90,0.00,,OVC014,0.00,VWS V14.01,2013-09-08 09:09:00,
2013-09-08 04:10:00,65.1,62.1,29.96,ENE,68,9.0,18.0,90,0.00,,CLR,0.00,VWS V14.01,2013-09-08 09:10:00,
2013-09-08 04:14:00,65.1,62.1,29.96,NNE,33,7.0,15.0,90,0.00,,OVC014,0.00,VWS V14.01,2013-09-08 09:14:00,
2013-09-08 04:15:00,65.1,62.1,29.96,NE,55,13.0,15.0,90,0.00,,CLR,0.00,VWS V14.01,2013-09-08 09:15:00,
2013-09-08 04:19:00,65.1,62.1,29.96,NW,311,2.0,14.0,90,0.00,,OVC014,0.00,VWS V14.01,2013-09-08 09:19:00,
2013-09-08 04:20:00,65.1,62.1,29.96,North,355,9.0,14.0,90,0.00,,CLR,0.00,VWS V14.01,2013-09-08 09:20:00,
2013-09-08 04:24:00,65.1,62.1,29.96,NNE,17,8.0,15.0,90,0.00,,OVC014,0.00,VWS V14.01,2013-09-08 09:24:00,
2013-09-08 04:25:00,65.1,62.1,29.96,NNW,328,7.0,15.0,90,0.00,,CLR,0.00,VWS V14.01,2013-09-08 09:25:00,
2013-09-08 04:29:00,65.1,62.1,29.96,NE,37,3.0,10.0,90,0.00,,OVC014,0.00,VWS V14.01,2013-09-08 09:29:00,
2013-09-08 04:30:00,65.1,62.1,29.96,NNW,328,7.0,10.0,90,0.00,,CLR,0.00,VWS V14.01,2013-09-08 09:30:00,
2013-09-08 04:34:00,65.1,62.1,29.96,NNE,22,8.0,14.0,90,0.00,,OVC014,0.00,VWS V14.01,2013-09-08 09:34:00,
2013-09-08 04:35:00,65.1,62.1,29.96,NNE,26,10.0,14.0,90,0.00,,CLR,0.00,VWS V14.01,2013-09-08 09:35:00,
2013-09-08 04:39:00,65.1,62.1,29.95,WNW,284,6.0,10.0,90,0.00,,OVC014,0.00,VWS V14.01,2013-09-08 09:39:00,
2013-09-08 04:40:00,65.1,62.1,29.95,NNE,20,6.0,10.0,90,0.00,,CLR,0.00,VWS V14.01,2013-09-08 09:40:00,
2013-09-08 04:44:00,65.1,62.1,29.95,North,10,7.0,8.0,90,0.00,,OVC014,0.00,VWS V14.01,2013-09-08 09:44:00,
2013-09-08 04:45:00,65.1,62.1,29.95,NNE,29,3.0,12.0,90,0.00,,CLR,0.00,VWS V14.01,2013-09-08 09:45:00,
2013-09-08 04:49:00,65.1,62.4,29.95,North,5,4.0,16.0,91,0.00,,OVC014,0.00,VWS V14.01,2013-09-08 09:49:00,
2013-09-08 04:50:00,65.1,62.4,29.95,North,5,8.0,16.0,91,0.00,,CLR,0.00,VWS V14.01,2013-09-08 09:50:00,
2013-09-08 04:54:00,65.2,62.5,29.95,North,355,5.0,12.0,91,0.00,,OVC014,0.00,VWS V14.01,2013-09-08 09:54:00,
2013-09-08 04:55:00,65.1,62.4,29.95,NNE,13,8.0,10.0,91,0.00,,CLR,0.00,VWS V14.01,2013-09-08 09:55:00,
2013-09-08 04:59:00,65.2,62.5,29.95,East,82,0.0,12.0,91,0.00,,OVC014,0.00,VWS V14.01,2013-09-08 09:59:00,
2013-09-08 05:00:00,65.2,62.5,29.95,NNW,329,0.0,12.0,91,0.00,,CLR,0.00,VWS V14.01,2013-09-08 10:00:00,
2013-09-08 05:05:00,65.3,62.6,29.95,North,350,2.0,13.0,91,0.00,,OVC012,0.00,VWS V14.01,2013-09-08 10:05:00,
2013-09-08 05:10:00,65.3,62.6,29.94,NNW,340,7.0,11.0,91,0.00,,OVC012,0.00,VWS V14.01,2013-09-08 10:10:00,
2013-09-08 05:15:00,65.3,62.6,29.95,NNE,32,5.0,13.0,91,0.00,,OVC012,0.00,VWS V14.01,2013-09-08 10:15:00,
2013-09-08 05:20:00,65.4,62.7,29.95,North,360,8.0,13.0,91,0.00,,OVC012,0.00,VWS V14.01,2013-09-08 10:20:00,
2013-09-08 05:25:00,65.4,62.7,29.94,NE,49,6.0,14.0,91,0.00,,OVC012,0.00,VWS V14.01,2013-09-08 10:25:00,
2013-09-08 05:30:00,65.4,62.7,29.94,NNW,328,4.0,15.0,91,0.00,,OVC012,0.00,VWS V14.01,2013-09-08 10:30:00,
2013-09-08 05:35:00,65.4,62.7,29.94,North,349,3.0,15.0,91,0.00,,OVC012,0.00,VWS V14.01,2013-09-08 10:35:00,
2013-09-08 05:40:00,65.4,62.7,29.95,North,355,13.0,18.0,91,0.00,,OVC012,0.00,VWS V14.01,2013-09-08 10:40:00,
2013-09-08 05:45:00,65.5,62.8,29.95,NNE,28,4.0,17.0,91,0.00,,OVC012,0.00,VWS V14.01,2013-09-08 10:45:00,
2013-09-08 05:50:00,65.5,62.8,29.95,NW,321,0.0,17.0,91,0.00,,OVC012,0.00,VWS V14.01,2013-09-08 10:50:00,
2013-09-08 05:55:00,65.6,62.9,29.95,NE,39,10.0,18.0,91,0.00,,OVC012,0.00,VWS V14.01,2013-09-08 10:55:00,
2013-09-08 06:00:00,65.7,63.0,29.95,NNW,340,9.0,17.0,91,0.00,,OVC010,0.00,VWS V14.01,2013-09-08 11:00:00,
2013-09-08 06:05:00,65.7,63.0,29.95,NE,55,0.0,18.0,91,0.00,,OVC010,0.00,VWS V14.01,2013-09-08 11:05:00,
2013-09-08 06:10:00,65.7,63.0,29.96,NE,36,11.0,13.0,91,0.00,,OVC010,0.00,VWS V14.01,2013-09-08 11:10:00,
2013-09-08 06:15:00,65.7,63.0,29.96,North,360,5.0,18.0,91,0.00,,OVC010,0.00,VWS V14.01,2013-09-08 11:15:00,
2013-09-08 06:20:00,65.7,63.0,29.96,North,355,10.0,15.0,91,0.00,,OVC010,0.00,VWS V14.01,2013-09-08 11:20:00,
2013-09-08 06:25:00,65.7,63.0,29.96,NE,40,11.0,14.0,91,0.00,,OVC010,0.00,VWS V14.01,2013-09-08 11:25:00,
2013-09-08 06:30:00,65.7,63.0,29.96,NNE,17,4.0,13.0,91,0.00,,OVC010,0.00,VWS V14.01,2013-09-08 11:30:00,
2013-09-08 06:35:00,65.8,63.1,29.96,NNE,27,6.0,16.0,91,0.00,,CLR,0.00,VWS V14.01,2013-09-08 11:35:00,
2013-09-08 06:36:00,65.9,63.5,29.96,NNE,32,9.0,16.0,92,0.00,,OVC010,0.00,VWS V14.01,2013-09-08 11:36:00,
2013-09-08 06:40:00,66.0,63.3,29.97,North,5,1.0,15.0,91,0.00,,CLR,0.00,VWS V14.01,2013-09-08 11:40:00,
2013-09-08 06:41:00,66.1,63.4,29.97,NE,36,5.0,13.0,91,0.00,,OVC010,0.00,VWS V14.01,2013-09-08 11:41:00,
2013-09-08 06:45:00,66.3,63.6,29.97,North,351,6.0,15.0,91,0.00,,CLR,0.00,VWS V14.01,2013-09-08 11:45:00,
2013-09-08 06:46:00,66.3,63.9,29.97,NNE,26,5.0,13.0,92,0.00,,OVC010,0.00,VWS V14.01,2013-09-08 11:46:00,
2013-09-08 06:50:00,66.5,63.8,29.97,NNE,27,6.0,12.0,91,0.00,,CLR,0.00,VWS V14.01,2013-09-08 11:50:00,
2013-09-08 06:51:00,66.5,63.8,29.97,NNE,24,6.0,16.0,91,0.00,,OVC010,0.00,VWS V14.01,2013-09-08 11:51:00,
2013-09-08 06:55:00,66.6,63.9,29.97,NNE,18,15.0,17.0,91,0.00,,CLR,0.00,VWS V14.01,2013-09-08 11:55:00,
2013-09-08 06:56:00,66.7,64.0,29.98,NE,46,10.0,17.0,91,0.00,,OVC010,0.00,VWS V14.01,2013-09-08 11:56:00,
2013-09-08 07:00:00,66.7,64.0,29.98,NE,38,7.0,13.0,91,0.00,,CLR,0.00,VWS V14.01,2013-09-08 12:00:00,
2013-09-08 07:01:00,66.7,64.0,29.98,NNE,19,11.0,21.0,91,0.00,,OVC010,0.00,VWS V14.01,2013-09-08 12:01:00,
2013-09-08 07:05:00,66.8,64.1,29.97,NNW,342,6.0,21.0,91,0.00,,CLR,0.00,VWS V14.01,2013-09-08 12:05:00,
2013-09-08 07:06:00,66.8,64.1,29.97,NE,34,8.0,13.0,91,0.00,,OVC010,0.00,VWS V14.01,2013-09-08 12:06:00,
2013-09-08 07:10:00,66.8,63.8,29.97,NNE,15,6.0,13.0,90,0.00,,CLR,0.00,VWS V14.01,2013-09-08 12:10:00,
2013-09-08 07:11:00,66.9,64.2,29.97,NNE,31,7.0,13.0,91,0.00,,OVC010,0.00,VWS V14.01,2013-09-08 12:11:00,
2013-09-08 07:15:00,66.9,63.9,29.97,NNE,19,8.0,12.0,90,0.00,,CLR,0.00,VWS V14.01,2013-09-08 12:15:00,
2013-09-08 07:16:00,67.0,64.0,29.98,NNE,25,8.0,14.0,90,0.00,,OVC010,0.00,VWS V14.01,2013-09-08 12:16:00,
2013-09-08 07:20:00,67.0,64.3,29.98,ENE,63,12.0,15.0,91,0.00,,CLR,0.00,VWS V14.01,2013-09-08 12:20:00,
2013-09-08 07:21:00,67.0,64.0,29.98,ENE,57,9.0,16.0,90,0.00,,OVC010,0.00,VWS V14.01,2013-09-08 12:21:00,
2013-09-08 07:25:00,67.1,64.1,29.98,NNE,26,10.0,16.0,90,0.00,,CLR,0.00,VWS V14.01,2013-09-08 12:25:00,
2013-09-08 07:26:00,67.1,64.1,29.98,NE,41,10.0,12.0,90,0.00,,OVC010,0.00,VWS V14.01,2013-09-08 12:26:00,
2013-09-08 07:30:00,67.1,64.1,29.98,ENE,65,10.0,16.0,90,0.00,,CLR,0.00,VWS V14.01,2013-09-08 12:30:00,
2013-09-08 07:31:00,67.1,64.1,29.98,ENE,57,10.0,16.0,90,0.00,,OVC010,0.00,VWS V14.01,2013-09-08 12:31:00,
2013-09-08 07:35:00,67.1,64.1,29.98,ENE,63,8.0,15.0,90,0.00,,CLR,0.00,VWS V14.01,2013-09-08 12:35:00,
2013-09-08 07:36:00,67.1,64.1,29.98,NE,51,9.0,13.0,90,0.00,,OVC010,0.00,VWS V14.01,2013-09-08 12:36:00,
2013-09-08 07:40:00,67.1,64.1,29.98,NE,47,12.0,17.0,90,0.00,,CLR,0.00,VWS V14.01,2013-09-08 12:40:00,
2013-09-08 07:41:00,67.1,64.4,29.98,North,5,10.0,17.0,91,0.00,,OVC010,0.00,VWS V14.01,2013-09-08 12:41:00,
2013-09-08 07:45:00,67.1,64.4,29.97,ENE,59,10.0,16.0,91,0.00,,CLR,0.00,VWS V14.01,2013-09-08 12:45:00,
2013-09-08 07:46:00,67.1,64.1,29.98,NE,53,12.0,16.0,90,0.00,,OVC010,0.00,VWS V14.01,2013-09-08 12:46:00,
2013-09-08 07:50:00,67.0,64.0,29.98,ENE,61,7.0,16.0,90,0.00,,CLR,0.00,VWS V14.01,2013-09-08 12:50:00,
2013-09-08 07:51:00,67.0,64.0,29.98,ENE,77,8.0,16.0,90,0.00,,OVC010,0.00,VWS V14.01,2013-09-08 12:51:00,
2013-09-08 07:55:00,67.0,63.7,29.98,NE,38,6.0,15.0,89,0.00,,CLR,0.00,VWS V14.01,2013-09-08 12:55:00,
2013-09-08 07:56:00,67.1,64.1,29.98,NE,42,12.0,14.0,90,0.00,,OVC010,0.00,VWS V14.01,2013-09-08 12:56:00,
2013-09-08 08:00:00,67.1,64.1,29.98,NNE,31,0.0,14.0,90,0.00,,CLR,0.00,VWS V14.01,2013-09-08 13:00:00,
2013-09-08 08:01:00,67.1,64.1,29.97,NE,51,7.0,13.0,90,0.00,,OVC010,0.00,VWS V14.01,2013-09-08 13:01:00,
2013-09-08 08:05:00,67.1,64.1,29.97,NE,37,13.0,14.0,90,0.00,,CLR,0.00,VWS V14.01,2013-09-08 13:05:00,
2013-09-08 08:06:00,67.1,64.1,29.98,NE,48,10.0,15.0,90,0.00,,OVC010,0.00,VWS V14.01,2013-09-08 13:06:00,
2013-09-08 08:10:00,67.0,64.0,29.98,North,5,8.0,14.0,90,0.00,,CLR,0.00,VWS V14.01,2013-09-08 13:10:00,
2013-09-08 08:11:00,67.0,64.0,29.98,NNE,13,6.0,13.0,90,0.00,,OVC010,0.00,VWS V14.01,2013-09-08 13:11:00,
2013-09-08 08:15:00,67.0,64.0,29.98,NE,42,11.0,15.0,90,0.00,,CLR,0.00,VWS V14.01,2013-09-08 13:15:00,
2013-09-08 08:16:00,67.1,64.4,29.98,NE,42,7.0,15.0,91,0.00,,OVC010,0.00,VWS V14.01,2013-09-08 13:16:00,
2013-09-08 08:20:00,67.0,64.3,29.98,ENE,57,9.0,12.0,91,0.00,,CLR,0.00,VWS V14.01,2013-09-08 13:20:00,
2013-09-08 08:22:00,67.0,64.3,29.98,ENE,65,11.0,13.0,91,0.00,,OVC010,0.00,VWS V14.01,2013-09-08 13:22:00,
2013-09-08 08:25:00,67.0,64.3,29.98,NE,44,10.0,13.0,91,0.00,,CLR,0.00,VWS V14.01,2013-09-08 13:25:00,
2013-09-08 08:27:00,67.0,64.3,29.98,NE,48,9.0,14.0,91,0.00,,OVC010,0.00,VWS V14.01,2013-09-08 13:27:00,
2013-09-08 08:30:00,67.1,64.4,29.98,NNE,27,6.0,14.0,91,0.00,,CLR,0.00,VWS V14.01,2013-09-08 13:30:00,
2013-09-08 08:32:00,67.1,64.4,29.98,NE,35,11.0,15.0,91,0.00,,OVC010,0.00,VWS V14.01,2013-09-08 13:32:00,
2013-09-08 08:35:00,67.1,64.4,29.98,NNE,28,9.0,15.0,91,0.00,,CLR,0.00,VWS V14.01,2013-09-08 13:35:00,
2013-09-08 08:37:00,67.2,64.5,29.98,ENE,61,8.0,15.0,91,0.00,,OVC010,0.00,VWS V14.01,2013-09-08 13:37:00,
2013-09-08 08:40:00,67.2,64.5,29.98,NE,38,11.0,14.0,91,0.00,,CLR,0.00,VWS V14.01,2013-09-08 13:40:00,
2013-09-08 08:42:00,67.3,64.6,29.98,NE,50,14.0,14.0,91,0.00,,OVC010,0.00,VWS V14.01,2013-09-08 13:42:00,
2013-09-08 08:45:00,67.3,64.6,29.97,ENE,77,12.0,14.0,91,0.00,,CLR,0.00,VWS V14.01,2013-09-08 13:45:00,
2013-09-08 08:47:00,67.3,64.6,29.97,NE,34,8.0,15.0,91,0.00,,OVC010,0.00,VWS V14.01,2013-09-08 13:47:00,
2013-09-08 08:50:00,67.4,64.7,29.97,NE,55,7.0,18.0,91,0.00,,CLR,0.00,VWS V14.01,2013-09-08 13:50:00,
2013-09-08 08:52:00,67.4,64.7,29.97,NNE,30,9.0,18.0,91,0.00,,OVC010,0.00,VWS V14.01,2013-09-08 13:52:00,
2013-09-08 08:55:00,67.4,64.7,29.97,NNE,24,7.0,18.0,91,0.00,,CLR,0.00,VWS V14.01,2013-09-08 13:55:00,
2013-09-08 08:57:00,67.6,64.9,29.97,NNE,32,11.0,17.0,91,0.00,,OVC010,0.00,VWS V14.01,2013-09-08 13:57:00,
2013-09-08 09:00:00,67.6,64.9,29.97,NE,42,6.0,17.0,91,0.00,,CLR,0.00,VWS V14.01,2013-09-08 14:00:00,
2013-09-08 09:02:00,67.7,65.0,29.97,ENE,62,7.0,17.0,91,0.00,,OVC012,0.00,VWS V14.01,2013-09-08 14:02:00,
2013-09-08 09:05:00,67.7,65.0,29.98,NE,38,9.0,17.0,91,0.00,,CLR,0.00,VWS V14.01,2013-09-08 14:05:00,
2013-09-08 09:07:00,67.8,65.1,29.98,ENE,61,11.0,17.0,91,0.00,,OVC012,0.00,VWS V14.01,2013-09-08 14:07:00,
2013-09-08 09:10:00,67.7,65.0,29.98,NNE,24,13.0,16.0,91,0.00,,CLR,0.00,VWS V14.01,2013-09-08 14:10:00,
2013-09-08 09:12:00,67.9,65.2,29.98,NE,36,13.0,16.0,91,0.00,,OVC012,0.00,VWS V14.01,2013-09-08 14:12:00,
2013-09-08 09:15:00,67.8,65.1,29.98,NE,45,10.0,17.0,91,0.00,,CLR,0.00,VWS V14.01,2013-09-08 14:15:00,
2013-09-08 09:17:00,67.9,65.2,29.98,ENE,60,15.0,17.0,91,0.00,,OVC012,0.00,VWS V14.01,2013-09-08 14:17:00,
2013-09-08 09:20:00,67.9,65.2,29.98,NNE,29,7.0,18.0,91,0.00,,CLR,0.00,VWS V14.01,2013-09-08 14:20:00,
2013-09-08 09:22:00,67.9,65.2,29.98,NNE,25,9.0,15.0,91,0.00,,OVC012,0.00,VWS V14.01,2013-09-08 14:22:00,
2013-09-08 09:25:00,67.9,65.2,29.98,NE,38,8.0,12.0,91,0.00,,CLR,0.00,VWS V14.01,2013-09-08 14:25:00,
2013-09-08 09:27:00,67.9,65.2,29.98,ENE,64,7.0,14.0,91,0.00,,OVC012,0.00,VWS V14.01,2013-09-08 14:27:00,
2013-09-08 09:30:00,67.8,65.1,29.98,ENE,63,8.0,13.0,91,0.00,,CLR,0.00,VWS V14.01,2013-09-08 14:30:00,
2013-09-08 09:32:00,67.8,65.1,29.98,NE,44,3.0,15.0,91,0.00,,OVC012,0.00,VWS V14.01,2013-09-08 14:32:00,
2013-09-08 09:35:00,67.9,65.2,29.98,NE,51,9.0,13.0,91,0.00,,CLR,0.00,VWS V14.01,2013-09-08 14:35:00,
2013-09-08 09:38:00,67.9,65.2,29.99,NNE,18,6.0,15.0,91,0.00,,OVC012,0.00,VWS V14.01,2013-09-08 14:38:00,
2013-09-08 09:40:00,67.9,65.2,29.99,ENE,61,9.0,15.0,91,0.00,,CLR,0.00,VWS V14.01,2013-09-08 14:40:00,
2013-09-08 09:43:00,68.0,65.3,29.98,ENE,66,9.0,13.0,91,0.00,,OVC012,0.00,VWS V14.01,2013-09-08 14:43:00,
2013-09-08 09:45:00,67.9,65.2,29.98,NE,53,1.0,13.0,91,0.00,,CLR,0.00,VWS V14.01,2013-09-08 14:45:00,
2013-09-08 09:48:00,67.9,65.2,29.98,NE,48,5.0,11.0,91,0.00,,OVC012,0.00,VWS V14.01,2013-09-08 14:48:00,
2013-09-08 09:50:00,67.9,65.2,29.98,NE,36,0.0,11.0,91,0.00,,CLR,0.00,VWS V14.01,2013-09-08 14:50:00,
2013-09-08 09:53:00,67.9,65.2,29.98,ENE,74,8.0,14.0,91,0.00,,OVC012,0.00,VWS V14.01,2013-09-08 14:53:00,
2013-09-08 09:55:00,67.9,65.2,29.98,East,88,1.0,14.0,91,0.00,,CLR,0.00,VWS V14.01,2013-09-08 14:55:00,
2013-09-08 09:58:00,67.9,65.2,29.99,NE,56,8.0,12.0,91,0.00,,OVC012,0.00,VWS V14.01,2013-09-08 14:58:00,
2013-09-08 10:00:00,67.9,65.2,29.98,NE,38,8.0,12.0,91,0.00,,CLR,0.00,VWS V14.01,2013-09-08 15:00:00,
2013-09-08 10:03:00,67.9,65.2,29.98,NE,49,4.0,12.0,91,0.00,,OVC012,0.00,VWS V14.01,2013-09-08 15:03:00,
2013-09-08 10:05:00,67.9,65.2,29.99,NE,49,5.0,13.0,91,0.00,,CLR,0.00,VWS V14.01,2013-09-08 15:05:00,
2013-09-08 10:08:00,67.7,65.0,29.99,NE,38,5.0,17.0,91,0.00,,OVC012,0.00,VWS V14.01,2013-09-08 15:08:00,
2013-09-08 10:10:00,67.8,65.1,29.99,NNE,32,4.0,17.0,91,0.00,,CLR,0.00,VWS V14.01,2013-09-08 15:10:00,
2013-09-08 10:13:00,67.7,65.0,29.99,East,80,10.0,15.0,91,0.00,,OVC012,0.00,VWS V14.01,2013-09-08 15:13:00,
2013-09-08 10:15:00,67.7,65.0,29.99,NNE,32,8.0,15.0,91,0.00,,CLR,0.00,VWS V14.01,2013-09-08 15:15:00,
2013-09-08 10:18:00,67.6,64.9,29.99,SE,141,4.0,14.0,91,0.00,,OVC012,0.00,VWS V14.01,2013-09-08 15:18:00,
2013-09-08 10:20:00,67.6,64.9,29.99,ENE,76,3.0,14.0,91,0.00,,CLR,0.00,VWS V14.01,2013-09-08 15:20:00,
2013-09-08 10:23:00,67.5,65.1,29.99,ENE,71,7.0,15.0,92,0.00,,OVC012,0.00,VWS V14.01,2013-09-08 15:23:00,
2013-09-08 10:25:00,67.5,65.1,29.99,ENE,76,3.0,15.0,92,0.00,,CLR,0.00,VWS V14.01,2013-09-08 15:25:00,
2013-09-08 10:28:00,67.4,65.0,29.99,NE,37,7.0,13.0,92,0.00,,OVC012,0.00,VWS V14.01,2013-09-08 15:28:00,
2013-09-08 10:30:00,67.4,65.0,29.99,ENE,75,8.0,15.0,92,0.00,,CLR,0.00,VWS V14.01,2013-09-08 15:30:00,
2013-09-08 10:33:00,67.5,65.1,29.99,ENE,78,5.0,14.0,92,0.00,,OVC012,0.00,VWS V14.01,2013-09-08 15:33:00,
2013-09-08 10:35:00,67.5,65.1,29.99,NE,44,5.0,14.0,92,0.00,,CLR,0.00,VWS V14.01,2013-09-08 15:35:00,
2013-09-08 10:38:00,67.5,65.1,29.99,ENE,77,8.0,13.0,92,0.00,,OVC012,0.00,VWS V14.01,2013-09-08 15:38:00,
2013-09-08 10:40:00,67.6,65.2,29.99,East,88,7.0,13.0,92,0.00,,CLR,0.00,VWS V14.01,2013-09-08 15:40:00,
2013-09-08 10:43:00,67.6,65.2,30.00,ENE,60,11.0,14.0,92,0.00,,OVC012,0.00,VWS V14.01,2013-09-08 15:43:00,
2013-09-08 10:45:00,67.6,65.2,30.00,ENE,78,10.0,14.0,92,0.00,,CLR,0.00,VWS V14.01,2013-09-08 15:45:00,
2013-09-08 10:48:00,67.6,65.2,30.00,ENE,68,8.0,14.0,92,0.00,,OVC012,0.00,VWS V14.01,2013-09-08 15:48:00,
2013-09-08 10:50:00,67.6,65.2,30.00,East,84,10.0,14.0,92,0.00,,CLR,0.00,VWS V14.01,2013-09-08 15:50:00,
2013-09-08 10:53:00,67.6,64.9,30.00,ENE,75,9.0,15.0,91,0.00,,OVC012,0.00,VWS V14.01,2013-09-08 15:53:00,
2013-09-08 10:55:00,67.5,64.8,30.00,East,86,11.0,15.0,91,0.00,,CLR,0.00,VWS V14.01,2013-09-08 15:55:00,
2013-09-08 10:58:00,67.6,65.2,30.00,NE,56,7.0,14.0,92,0.00,,OVC012,0.00,VWS V14.01,2013-09-08 15:58:00,
2013-09-08 11:00:00,67.6,65.2,30.00,NE,42,7.0,14.0,92,0.00,,CLR,0.00,VWS V14.01,2013-09-08 16:00:00,
2013-09-08 11:03:00,67.5,65.1,30.00,East,100,7.0,15.0,92,0.00,,OVC021,0.00,VWS V14.01,2013-09-08 16:03:00,
2013-09-08 11:05:00,67.5,64.8,30.00,East,92,14.0,15.0,91,0.00,,CLR,0.00,VWS V14.01,2013-09-08 16:05:00,
2013-09-08 11:09:00,67.6,64.9,30.00,ENE,67,5.0,15.0,91,0.00,,OVC021,0.00,VWS V14.01,2013-09-08 16:09:00,
2013-09-08 11:10:00,67.6,64.9,30.00,NE,44,8.0,15.0,91,0.00,,CLR,0.00,VWS V14.01,2013-09-08 16:10:00,
2013-09-08 11:14:00,67.6,64.9,30.00,ENE,69,11.0,13.0,91,0.00,,OVC021,0.00,VWS V14.01,2013-09-08 16:14:00,
2013-09-08 11:15:00,67.6,64.9,30.00,ENE,62,12.0,13.0,91,0.00,,CLR,0.00,VWS V14.01,2013-09-08 16:15:00,
2013-09-08 11:19:00,67.7,65.0,30.00,East,98,6.0,14.0,91,0.00,,OVC021,0.00,VWS V14.01,2013-09-08 16:19:00,
2013-09-08 11:20:00,67.7,65.0,30.00,East,101,8.0,14.0,91,0.00,,CLR,0.00,VWS V14.01,2013-09-08 16:20:00,
2013-09-08 11:24:00,67.8,65.1,30.00,East,97,9.0,13.0,91,0.00,,OVC021,0.00,VWS V14.01,2013-09-08 16:24:00,
2013-09-08 11:25:00,67.8,65.1,30.00,East,81,7.0,13.0,91,0.00,,CLR,0.00,VWS V14.01,2013-09-08 16:25:00,
2013-09-08 11:29:00,67.8,65.1,30.00,East,83,9.0,14.0,91,0.00,,OVC021,0.00,VWS V14.01,2013-09-08 16:29:00,
2013-09-08 11:30:00,67.8,65.1,30.00,ESE,105,11.0,14.0,91,0.00,,CLR,0.00,VWS V14.01,2013-09-08 16:30:00,
2013-09-08 11:34:00,67.9,65.2,30.00,NE,44,6.0,14.0,91,0.00,,OVC021,0.00,VWS V14.01,2013-09-08 16:34:00,
2013-09-08 11:35:00,67.9,65.2,30.00,ENE,71,9.0,14.0,91,0.00,,CLR,0.00,VWS V14.01,2013-09-08 16:35:00,
2013-09-08 11:39:00,68.0,65.0,30.00,ENE,74,7.0,13.0,90,0.00,,OVC021,0.00,VWS V14.01,2013-09-08 16:39:00,
2013-09-08 11:40:00,68.0,65.0,30.00,ENE,74,7.0,13.0,90,0.00,,CLR,0.00,VWS V14.01,2013-09-08 16:40:00,
2013-09-08 11:44:00,68.1,65.1,30.00,East,87,9.0,13.0,90,0.00,,OVC021,0.00,VWS V14.01,2013-09-08 16:44:00,
2013-09-08 11:45:00,68.1,65.1,30.00,East,87,9.0,13.0,90,0.00,,CLR,0.00,VWS V14.01,2013-09-08 16:45:00,
2013-09-08 11:49:00,68.2,65.2,30.00,East,84,0.0,13.0,90,0.00,,OVC021,0.00,VWS V14.01,2013-09-08 16:49:00,
2013-09-08 11:50:00,68.2,65.2,30.00,East,84,0.0,13.0,90,0.00,,CLR,0.00,VWS V14.01,2013-09-08 16:50:00,
2013-09-08 11:54:00,68.3,64.9,30.00,East,93,0.0,9.0,89,0.00,,OVC021,0.00,VWS V14.01,2013-09-08 16:54:00,
2013-09-08 11:55:00,68.3,64.9,30.00,East,93,0.0,9.0,89,0.00,,CLR,0.00,VWS V14.01,2013-09-08 16:55:00,
2013-09-08 11:59:00,68.5,65.1,30.00,ESE,110,2.0,9.0,89,0.00,,OVC021,0.00,VWS V14.01,2013-09-08 16:59:00,
2013-09-08 12:00:00,68.5,65.1,30.00,ESE,110,2.0,9.0,89,0.00,,CLR,0.00,VWS V14.01,2013-09-08 17:00:00,
2013-09-08 12:05:00,68.6,65.2,30.00,East,88,3.0,10.0,89,0.00,,CLR,0.00,VWS V14.01,2013-09-08 17:05:00,
2013-09-08 12:06:00,68.7,65.0,30.00,East,101,2.0,8.0,88,0.00,,OVC021,0.00,VWS V14.01,2013-09-08 17:06:00,
2013-09-08 12:10:00,68.8,65.4,30.00,East,81,0.0,8.0,89,0.00,,CLR,0.00,VWS V14.01,2013-09-08 17:10:00,
2013-09-08 12:11:00,68.8,65.4,30.00,ESE,105,2.0,9.0,89,0.00,,OVC021,0.00,VWS V14.01,2013-09-08 17:11:00,
2013-09-08 12:15:00,68.7,65.3,30.00,ESE,113,1.0,10.0,89,0.00,,CLR,0.00,VWS V14.01,2013-09-08 17:15:00,
2013-09-08 12:16:00,68.7,65.3,30.00,East,101,7.0,11.0,89,0.00,,OVC021,0.00,VWS V14.01,2013-09-08 17:16:00,
2013-09-08 12:20:00,68.6,65.2,30.00,NE,53,4.0,11.0,89,0.00,,CLR,0.00,VWS V14.01,2013-09-08 17:20:00,
2013-09-08 12:21:00,68.5,65.1,30.00,ENE,75,7.0,11.0,89,0.00,,OVC021,0.00,VWS V14.01,2013-09-08 17:21:00,
2013-09-08 12:25:00,68.4,65.0,30.00,ESE,109,10.0,13.0,89,0.00,,CLR,0.00,VWS V14.01,2013-09-08 17:25:00,
2013-09-08 12:26:00,68.4,65.0,30.00,NE,49,3.0,11.0,89,0.00,,OVC021,0.00,VWS V14.01,2013-09-08 17:26:00,
2013-09-08 12:30:00,68.4,65.0,30.00,East,88,0.0,10.0,89,0.00,,CLR,0.00,VWS V14.01,2013-09-08 17:30:00,
2013-09-08 12:31:00,68.5,65.1,30.00,ENE,63,5.0,9.0,89,0.00,,OVC014,0.00,VWS V14.01,2013-09-08 17:31:00,
2013-09-08 12:35:00,68.5,65.5,30.00,ENE,59,4.0,10.0,90,0.00,,CLR,0.00,VWS V14.01,2013-09-08 17:35:00,
2013-09-08 12:36:00,68.5,65.1,30.00,ENE,65,1.0,9.0,89,0.00,,OVC014,0.00,VWS V14.01,2013-09-08 17:36:00,
2013-09-08 12:40:00,68.5,65.1,30.00,East,98,0.0,13.0,89,0.00,,CLR,0.00,VWS V14.01,2013-09-08 17:40:00,
2013-09-08 12:41:00,68.5,65.1,30.00,ENE,70,4.0,12.0,89,0.00,,OVC014,0.00,VWS V14.01,2013-09-08 17:41:00,
2013-09-08 12:45:00,68.6,65.2,30.00,ESE,111,2.0,11.0,89,0.00,,CLR,0.00,VWS V14.01,2013-09-08 17:45:00,
2013-09-08 12:46:00,68.7,65.3,30.00,ESE,102,0.0,12.0,89,0.00,,OVC014,0.00,VWS V14.01,2013-09-08 17:46:00,
2013-09-08 12:50:00,68.8,65.1,30.00,East,89,7.0,10.0,88,0.00,,CLR,0.00,VWS V14.01,2013-09-08 17:50:00,
2013-09-08 12:51:00,68.9,65.5,29.99,East,86,6.0,10.0,89,0.00,,OVC014,0.00,VWS V14.01,2013-09-08 17:51:00,
2013-09-08 12:55:00,69.0,65.3,29.99,ENE,71,1.0,10.0,88,0.00,,CLR,0.00,VWS V14.01,2013-09-08 17:55:00,
2013-09-08 12:56:00,68.9,65.2,29.99,East,88,11.0,11.0,88,0.00,,OVC014,0.00,VWS V14.01,2013-09-08 17:56:00,
2013-09-08 13:00:00,68.8,65.1,29.99,East,93,3.0,11.0,88,0.00,,CLR,0.00,VWS V14.01,2013-09-08 18:00:00,
2013-09-08 13:01:00,68.7,65.0,30.00,East,93,8.0,13.0,88,0.00,,OVC018,0.00,VWS V14.01,2013-09-08 18:01:00,
2013-09-08 13:05:00,68.6,64.9,30.00,East,92,11.0,13.0,88,0.00,,CLR,0.00,VWS V14.01,2013-09-08 18:05:00,
2013-09-08 13:06:00,68.7,65.3,30.00,East,88,7.0,11.0,89,0.00,,OVC018,0.00,VWS V14.01,2013-09-08 18:06:00,
2013-09-08 13:10:00,68.8,65.4,30.00,East,88,5.0,9.0,89,0.00,,CLR,0.00,VWS V14.01,2013-09-08 18:10:00,
2013-09-08 13:11:00,68.8,65.1,30.00,ENE,76,0.0,10.0,88,0.00,,OVC018,0.00,VWS V14.01,2013-09-08 18:11:00,
2013-09-08 13:15:00,68.8,65.1,30.00,ENE,73,7.0,10.0,88,0.00,,CLR,0.00,VWS V14.01,2013-09-08 18:15:00,
2013-09-08 13:16:00,68.8,65.1,30.00,East,80,0.0,10.0,88,0.00,,OVC018,0.00,VWS V14.01,2013-09-08 18:16:00,
2013-09-08 13:20:00,68.8,65.1,30.00,East,83,0.0,10.0,88,0.00,,CLR,0.00,VWS V14.01,2013-09-08 18:20:00,
2013-09-08 13:21:00,68.8,64.8,30.00,East,99,7.0,13.0,87,0.00,,OVC018,0.00,VWS V14.01,2013-09-08 18:21:00,
2013-09-08 13:25:00,68.8,65.1,30.00,East,95,0.0,11.0,88,0.00,,CLR,0.00,VWS V14.01,2013-09-08 18:25:00,
2013-09-08 13:26:00,68.7,65.0,30.00,East,91,0.0,9.0,88,0.00,,OVC018,0.00,VWS V14.01,2013-09-08 18:26:00,
2013-09-08 13:30:00,68.8,65.1,30.00,ENE,76,2.0,9.0,88,0.00,,CLR,0.00,VWS V14.01,2013-09-08 18:30:00,
2013-09-08 13:32:00,68.8,65.1,30.00,East,92,0.0,9.0,88,0.00,,OVC018,0.00,VWS V14.01,2013-09-08 18:32:00,
2013-09-08 13:35:00,68.8,65.1,30.00,East,88,3.0,10.0,88,0.00,,CLR,0.00,VWS V14.01,2013-09-08 18:35:00,
2013-09-08 13:37:00,68.9,64.9,30.00,East,96,0.0,10.0,87,0.00,,OVC018,0.00,VWS V14.01,2013-09-08 18:37:00,
2013-09-08 13:40:00,69.0,65.3,29.99,East,88,3.0,9.0,88,0.00,,OVC016,0.00,VWS V14.01,2013-09-08 18:40:00,
2013-09-08 13:42:00,69.0,65.0,29.99,East,89,7.0,10.0,87,0.00,,OVC018,0.00,VWS V14.01,2013-09-08 18:42:00,
2013-09-08 13:45:00,69.0,65.0,29.99,East,93,7.0,9.0,87,0.00,,CLR,0.00,VWS V14.01,2013-09-08 18:45:00,
2013-09-08 13:47:00,69.0,65.0,29.99,East,99,0.0,8.0,87,0.00,,OVC018,0.00,VWS V14.01,2013-09-08 18:47:00,
2013-09-08 13:50:00,69.2,65.2,29.99,ENE,76,5.0,10.0,87,0.00,,CLR,0.00,VWS V14.01,2013-09-08 18:50:00,
2013-09-08 13:52:00,69.2,64.8,29.99,East,93,3.0,10.0,86,0.00,,OVC018,0.00,VWS V14.01,2013-09-08 18:52:00,
2013-09-08 13:55:00,69.3,64.9,29.99,East,90,0.0,12.0,86,0.00,,CLR,0.00,VWS V14.01,2013-09-08 18:55:00,
2013-09-08 13:57:00,69.4,65.0,29.99,ESE,106,11.0,12.0,86,0.00,,OVC018,0.00,VWS V14.01,2013-09-08 18:57:00,
2013-09-08 14:00:00,69.4,65.0,29.99,ESE,117,4.0,11.0,86,0.00,,CLR,0.00,VWS V14.01,2013-09-08 19:00:00,
2013-09-08 14:02:00,69.5,65.1,29.98,East,95,0.0,10.0,86,0.00,,OVC027,0.00,VWS V14.01,2013-09-08 19:02:00,
2013-09-08 14:05:00,69.5,65.1,29.99,ENE,78,7.0,9.0,86,0.00,,CLR,0.00,VWS V14.01,2013-09-08 19:05:00,
2013-09-08 14:07:00,69.5,64.8,29.98,ESE,102,3.0,12.0,85,0.00,,OVC027,0.00,VWS V14.01,2013-09-08 19:07:00,
2013-09-08 14:10:00,69.6,64.9,29.98,ESE,103,0.0,12.0,85,0.00,,CLR,0.00,VWS V14.01,2013-09-08 19:10:00,
2013-09-08 14:12:00,69.7,65.3,29.98,SE,132,2.0,9.0,86,0.00,,OVC027,0.00,VWS V14.01,2013-09-08 19:12:00,
2013-09-08 14:15:00,69.7,65.3,29.98,East,100,2.0,10.0,86,0.00,,CLR,0.00,VWS V14.01,2013-09-08 19:15:00,
2013-09-08 14:17:00,69.6,64.9,29.98,ESE,115,0.0,10.0,85,0.00,,OVC027,0.00,VWS V14.01,2013-09-08 19:17:00,
2013-09-08 14:20:00,69.6,64.9,29.98,ESE,106,9.0,10.0,85,0.00,,CLR,0.00,VWS V14.01,2013-09-08 19:20:00,
2013-09-08 14:22:00,69.5,65.1,29.98,ESE,112,5.0,11.0,86,0.00,,OVC027,0.00,VWS V14.01,2013-09-08 19:22:00,
2013-09-08 14:25:00,69.5,65.1,29.98,ESE,110,0.0,11.0,86,0.00,,CLR,0.00,VWS V14.01,2013-09-08 19:25:00,
2013-09-08 14:27:00,69.5,65.1,29.99,ESE,108,0.0,8.0,86,0.00,,OVC027,0.00,VWS V14.01,2013-09-08 19:27:00,
2013-09-08 14:30:00,69.5,65.1,29.98,East,92,0.0,8.0,86,0.00,,CLR,0.00,VWS V14.01,2013-09-08 19:30:00,
2013-09-08 14:32:00,69.6,64.9,29.98,East,88,7.0,7.0,85,0.00,,OVC027,0.00,VWS V14.01,2013-09-08 19:32:00,
2013-09-08 14:35:00,69.6,64.9,29.98,ENE,74,0.0,10.0,85,0.00,,CLR,0.00,VWS V14.01,2013-09-08 19:35:00,
2013-09-08 14:37:00,69.7,65.0,29.98,SE,125,6.0,8.0,85,0.00,,OVC027,0.00,VWS V14.01,2013-09-08 19:37:00,
2013-09-08 14:40:00,69.7,64.7,29.98,SE,126,1.0,8.0,84,0.00,,CLR,0.00,VWS V14.01,2013-09-08 19:40:00,
2013-09-08 14:42:00,69.7,65.0,29.98,ESE,113,2.0,9.0,85,0.00,,OVC027,0.00,VWS V14.01,2013-09-08 19:42:00,
2013-09-08 14:45:00,69.7,65.0,29.98,SE,140,8.0,9.0,85,0.00,,CLR,0.00,VWS V14.01,2013-09-08 19:45:00,
2013-09-08 14:47:00,69.7,65.0,29.98,ENE,77,3.0,9.0,85,0.00,,OVC027,0.00,VWS V14.01,2013-09-08 19:47:00,
2013-09-08 14:50:00,69.7,65.0,29.97,ESE,122,0.0,9.0,85,0.00,,CLR,0.00,VWS V14.01,2013-09-08 19:50:00,
2013-09-08 14:52:00,69.8,65.1,29.98,ESE,113,4.0,8.0,85,0.00,,OVC027,0.00,VWS V14.01,2013-09-08 19:52:00,
2013-09-08 14:55:00,69.8,65.1,29.98,ENE,78,0.0,8.0,85,0.00,,CLR,0.00,VWS V14.01,2013-09-08 19:55:00,
2013-09-08 14:58:00,70.1,65.1,29.98,East,90,5.0,5.0,84,0.00,,OVC027,0.00,VWS V14.01,2013-09-08 19:58:00,
2013-09-08 15:00:00,70.1,65.1,29.98,East,89,2.0,5.0,84,0.00,,CLR,0.00,VWS V14.01,2013-09-08 20:00:00,
2013-09-08 15:03:00,70.2,65.1,29.98,SE,125,0.0,7.0,84,0.00,,BKN110,0.00,VWS V14.01,2013-09-08 20:03:00,
2013-09-08 15:05:00,70.3,65.2,29.98,ESE,112,0.0,7.0,84,0.00,,CLR,0.00,VWS V14.01,2013-09-08 20:05:00,
2013-09-08 15:08:00,70.4,65.0,29.97,SE,124,0.0,8.0,83,0.00,,BKN110,0.00,VWS V14.01,2013-09-08 20:08:00,
2013-09-08 15:10:00,70.4,65.0,29.97,ENE,67,0.0,8.0,83,0.00,,CLR,0.00,VWS V14.01,2013-09-08 20:10:00,
2013-09-08 15:13:00,70.5,65.1,29.97,East,99,0.0,8.0,83,0.00,,BKN110,0.00,VWS V14.01,2013-09-08 20:13:00,
2013-09-08 15:15:00,70.6,65.2,29.97,ENE,72,7.0,7.0,83,0.00,,CLR,0.00,VWS V14.01,2013-09-08 20:15:00,
2013-09-08 15:18:00,70.7,65.3,29.97,East,92,0.0,7.0,83,0.00,,BKN110,0.00,VWS V14.01,2013-09-08 20:18:00,
2013-09-08 15:20:00,70.8,65.4,29.97,NE,54,0.0,7.0,83,0.00,,CLR,0.00,VWS V14.01,2013-09-08 20:20:00,
2013-09-08 15:23:00,70.9,65.1,29.97,East,101,0.0,8.0,82,0.00,,BKN110,0.00,VWS V14.01,2013-09-08 20:23:00,
2013-09-08 15:25:00,70.9,65.1,29.97,East,101,0.0,8.0,82,0.00,,CLR,0.00,VWS V14.01,2013-09-08 20:25:00,
2013-09-08 15:28:00,71.1,65.3,29.97,East,90,0.0,4.0,82,0.00,,BKN110,0.00,VWS V14.01,2013-09-08 20:28:00,
2013-09-08 15:30:00,71.1,65.3,29.97,East,91,0.0,1.0,82,0.00,,CLR,0.00,VWS V14.01,2013-09-08 20:30:00,
2013-09-08 15:33:00,71.1,65.0,29.97,SE,142,0.0,6.0,81,0.00,,BKN110,0.00,VWS V14.01,2013-09-08 20:33:00,
2013-09-08 15:35:00,71.2,65.1,29.97,East,90,0.0,6.0,81,0.00,,CLR,0.00,VWS V14.01,2013-09-08 20:35:00,
2013-09-08 15:38:00,71.5,65.4,29.96,East,95,0.0,8.0,81,0.00,,BKN110,0.00,VWS V14.01,2013-09-08 20:38:00,
2013-09-08 15:40:00,71.6,65.1,29.96,East,99,5.0,8.0,80,0.00,,CLR,0.00,VWS V14.01,2013-09-08 20:40:00,
2013-09-08 15:43:00,71.7,65.6,29.96,East,97,5.0,7.0,81,0.00,,BKN110,0.00,VWS V14.01,2013-09-08 20:43:00,
2013-09-08 15:45:00,71.8,65.7,29.96,SE,126,0.0,7.0,81,0.00,,CLR,0.00,VWS V14.01,2013-09-08 20:45:00,
2013-09-08 15:48:00,71.9,65.4,29.96,ENE,74,1.0,11.0,80,0.00,,BKN110,0.00,VWS V14.01,2013-09-08 20:48:00,
2013-09-08 15:50:00,71.8,65.3,29.96,East,101,0.0,11.0,80,0.00,,CLR,0.00,VWS V14.01,2013-09-08 20:50:00,
2013-09-08 15:53:00,71.5,65.0,29.96,East,95,5.0,7.0,80,0.00,,BKN110,0.00,VWS V14.01,2013-09-08 20:53:00,
2013-09-08 15:55:00,71.3,64.8,29.96,East,92,7.0,8.0,80,0.00,,CLR,0.00,VWS V14.01,2013-09-08 20:55:00,
2013-09-08 15:58:00,70.7,64.6,29.96,ENE,68,1.0,13.0,81,0.00,,BKN110,0.00,VWS V14.01,2013-09-08 20:58:00,
2013-09-08 16:00:00,70.6,64.5,29.96,ESE,109,3.0,13.0,81,0.00,,CLR,0.00,VWS V14.01,2013-09-08 21:00:00,
2013-09-08 16:03:00,70.4,64.7,29.96,ENE,75,3.0,8.0,82,0.00,,BKN110,0.00,VWS V14.01,2013-09-08 21:03:00,
2013-09-08 16:05:00,70.4,64.7,29.96,East,93,1.0,8.0,82,0.00,,CLR,0.00,VWS V14.01,2013-09-08 21:05:00,
2013-09-08 16:08:00,70.4,64.7,29.96,East,95,0.0,8.0,82,0.00,,BKN110,0.00,VWS V14.01,2013-09-08 21:08:00,
2013-09-08 16:10:00,70.4,64.7,29.96,East,95,0.0,8.0,82,0.00,,CLR,0.00,VWS V14.01,2013-09-08 21:10:00,
2013-09-08 16:13:00,70.5,65.1,29.95,East,84,5.0,10.0,83,0.00,,BKN110,0.00,VWS V14.01,2013-09-08 21:13:00,
2013-09-08 16:15:00,70.5,64.8,29.95,ESE,113,0.0,10.0,82,0.00,,CLR,0.00,VWS V14.01,2013-09-08 21:15:00,
2013-09-08 16:18:00,70.7,64.9,29.95,SE,126,0.0,5.0,82,0.00,,BKN110,0.00,VWS V14.01,2013-09-08 21:18:00,
2013-09-08 16:20:00,70.7,64.6,29.95,East,85,0.0,5.0,81,0.00,,CLR,0.00,VWS V14.01,2013-09-08 21:20:00,
2013-09-08 16:23:00,70.7,64.9,29.95,ESE,117,0.0,8.0,82,0.00,,BKN110,0.00,VWS V14.01,2013-09-08 21:23:00,
2013-09-08 16:25:00,70.7,64.9,29.95,ESE,121,5.0,8.0,82,0.00,,CLR,0.00,VWS V14.01,2013-09-08 21:25:00,
2013-09-08 16:29:00,70.9,65.1,29.95,ESE,106,0.0,8.0,82,0.00,,BKN110,0.00,VWS V14.01,2013-09-08 21:29:00,
2013-09-08 16:30:00,70.9,65.1,29.95,ESE,106,0.0,8.0,82,0.00,,CLR,0.00,VWS V14.01,2013-09-08 21:30:00,
2013-09-08 16:34:00,71.3,65.2,29.95,ESE,112,0.0,4.0,81,0.00,,BKN110,0.00,VWS V14.01,2013-09-08 21:34:00,
2013-09-08 16:35:00,71.3,65.2,29.95,ESE,112,0.0,4.0,81,0.00,,CLR,0.00,VWS V14.01,2013-09-08 21:35:00,
2013-09-08 16:39:00,71.3,64.8,29.95,ESE,121,4.0,9.0,80,0.00,,BKN110,0.00,VWS V14.01,2013-09-08 21:39:00,
2013-09-08 16:40:00,71.3,64.8,29.95,SE,125,0.0,9.0,80,0.00,,CLR,0.00,VWS V14.01,2013-09-08 21:40:00,
2013-09-08 16:44:00,71.2,64.7,29.95,East,92,0.0,7.0,80,0.00,,BKN110,0.00,VWS V14.01,2013-09-08 21:44:00,
2013-09-08 16:45:00,71.2,64.7,29.95,ESE,103,0.0,7.0,80,0.00,,CLR,0.00,VWS V14.01,2013-09-08 21:45:00,
2013-09-08 16:49:00,71.1,64.6,29.95,East,95,0.0,8.0,80,0.00,,BKN110,0.00,VWS V14.01,2013-09-08 21:49:00,
2013-09-08 16:50:00,71.1,64.6,29.95,ESE,102,0.0,8.0,80,0.00,,CLR,0.00,VWS V14.01,2013-09-08 21:50:00,
2013-09-08 16:54:00,71.1,65.0,29.95,East,89,7.0,9.0,81,0.00,,BKN110,0.00,VWS V14.01,2013-09-08 21:54:00,
2013-09-08 16:55:00,71.1,65.0,29.95,East,89,7.0,9.0,81,0.00,,CLR,0.00,VWS V14.01,2013-09-08 21:55:00,
2013-09-08 16:59:00,70.9,64.8,29.95,East,82,0.0,7.0,81,0.00,,BKN110,0.00,VWS V14.01,2013-09-08 21:59:00,
2013-09-08 17:00:00,70.9,64.8,29.95,East,82,0.0,7.0,81,0.00,,CLR,0.00,VWS V14.01,2013-09-08 22:00:00,
2013-09-08 17:04:00,71.0,64.5,29.94,East,92,0.0,8.0,80,0.00,,SCT250,0.00,VWS V14.01,2013-09-08 22:04:00,
2013-09-08 17:05:00,71.0,64.5,29.94,East,92,0.0,8.0,80,0.00,,CLR,0.00,VWS V14.01,2013-09-08 22:05:00,
2013-09-08 17:09:00,70.9,64.4,29.94,ESE,113,0.0,9.0,80,0.00,,SCT250,0.00,VWS V14.01,2013-09-08 22:09:00,
2013-09-08 17:10:00,70.9,64.4,29.94,East,82,0.0,9.0,80,0.00,,CLR,0.00,VWS V14.01,2013-09-08 22:10:00,
2013-09-08 17:14:00,70.7,64.6,29.94,ENE,76,0.0,9.0,81,0.00,,SCT250,0.00,VWS V14.01,2013-09-08 22:14:00,
2013-09-08 17:15:00,70.8,64.7,29.94,East,82,0.0,9.0,81,0.00,,CLR,0.00,VWS V14.01,2013-09-08 22:15:00,
2013-09-08 17:19:00,70.4,64.3,29.94,East,90,0.0,8.0,81,0.00,,SCT250,0.00,VWS V14.01,2013-09-08 22:19:00,
2013-09-08 17:20:00,70.4,64.3,29.94,ESE,105,7.0,8.0,81,0.00,,CLR,0.00,VWS V14.01,2013-09-08 22:20:00,
2013-09-08 17:24:00,70.3,64.6,29.93,ESE,102,0.0,8.0,82,0.00,,SCT250,0.00,VWS V14.01,2013-09-08 22:24:00,
2013-09-08 17:25:00,70.3,64.6,29.93,East,94,0.0,8.0,82,0.00,,CLR,0.00,VWS V14.01,2013-09-08 22:25:00,
2013-09-08 17:29:00,70.3,64.6,29.93,East,98,0.0,7.0,82,0.00,,SCT250,0.00,VWS V14.01,2013-09-08 22:29:00,
2013-09-08 17:30:00,70.3,64.6,29.93,East,96,1.0,7.0,82,0.00,,CLR,0.00,VWS V14.01,2013-09-08 22:30:00,
2013-09-08 17:34:00,70.4,64.7,29.93,East,99,0.0,7.0,82,0.00,,SCT250,0.00,VWS V14.01,2013-09-08 22:34:00,
2013-09-08 17:35:00,70.4,64.7,29.93,ENE,67,4.0,7.0,82,0.00,,CLR,0.00,VWS V14.01,2013-09-08 22:35:00,
2013-09-08 17:39:00,70.5,64.8,29.93,East,87,0.0,9.0,82,0.00,,SCT250,0.00,VWS V14.01,2013-09-08 22:39:00,
2013-09-08 17:40:00,70.5,64.4,29.93,East,92,0.0,9.0,81,0.00,,CLR,0.00,VWS V14.01,2013-09-08 22:40:00,
2013-09-08 17:44:00,70.1,64.4,29.93,East,93,3.0,6.0,82,0.00,,SCT250,0.00,VWS V14.01,2013-09-08 22:44:00,
2013-09-08 17:45:00,70.2,64.4,29.93,East,86,0.0,6.0,82,0.00,,CLR,0.00,VWS V14.01,2013-09-08 22:45:00,
2013-09-08 17:50:00,69.8,64.4,29.93,East,98,0.0,6.0,83,0.00,,SCT250,0.00,VWS V14.01,2013-09-08 22:50:00,
2013-09-08 17:55:00,69.8,64.8,29.93,ESE,113,0.0,0.0,84,0.00,,SCT250,0.00,VWS V14.01,2013-09-08 22:55:00,
2013-09-08 18:00:00,69.8,64.8,29.93,East,92,3.0,5.0,84,0.00,,SCT250,0.00,VWS V14.01,2013-09-08 23:00:00,
2013-09-08 18:05:00,69.7,64.3,29.93,East,86,5.0,7.0,83,0.00,,SCT250,0.00,VWS V14.01,2013-09-08 23:05:00,
2013-09-08 18:10:00,69.7,64.7,29.92,ENE,76,0.0,6.0,84,0.00,,SCT250,0.00,VWS V14.01,2013-09-08 23:10:00,
2013-09-08 18:15:00,69.5,64.5,29.92,East,86,3.0,5.0,84,0.00,,SCT250,0.00,VWS V14.01,2013-09-08 23:15:00,
2013-09-08 18:20:00,69.3,64.3,29.92,East,82,7.0,8.0,84,0.00,,SCT250,0.00,VWS V14.01,2013-09-08 23:20:00,
2013-09-08 18:25:00,69.2,64.2,29.92,East,80,6.0,7.0,84,0.00,,SCT250,0.00,VWS V14.01,2013-09-08 23:25:00,
2013-09-08 18:30:00,69.1,64.4,29.92,East,87,6.0,6.0,85,0.00,,SCT250,0.00,VWS V14.01,2013-09-08 23:30:00,
2013-09-08 18:35:00,69.0,64.3,29.92,ENE,78,0.0,6.0,85,0.00,,SCT250,0.00,VWS V14.01,2013-09-08 23:35:00,
2013-09-08 18:40:00,68.8,64.1,29.92,ENE,74,4.0,7.0,85,0.00,,SCT250,0.00,VWS V14.01,2013-09-08 23:40:00,
2013-09-08 18:45:00,68.6,64.2,29.92,ENE,63,0.0,7.0,86,0.00,,SCT250,0.00,VWS V14.01,2013-09-08 23:45:00,
2013-09-08 18:50:00,68.4,63.7,29.92,ENE,76,7.0,8.0,85,0.00,,SCT250,0.00,VWS V14.01,2013-09-08 23:50:00,
2013-09-08 18:55:00,68.3,64.0,29.92,NE,55,0.0,7.0,86,0.00,,SCT250,0.00,VWS V14.01,2013-09-08 23:55:00,
2013-09-08 19:00:00,68.2,63.9,29.91,ENE,78,1.0,7.0,86,0.00,,SCT250,0.00,VWS V14.01,2013-09-09 00:00:00,
2013-09-08 19:05:00,68.1,63.8,29.91,East,80,6.0,8.0,86,0.00,,SCT250,0.00,VWS V14.01,2013-09-09 00:05:00,
2013-09-08 19:10:00,68.1,63.8,29.91,NE,38,5.0,7.0,86,0.00,,CLR,0.00,VWS V14.01,2013-09-09 00:10:00,
2013-09-08 19:11:00,68.0,63.7,29.91,ENE,65,3.0,7.0,86,0.00,,SCT250,0.00,VWS V14.01,2013-09-09 00:11:00,
2013-09-08 19:15:00,68.0,64.0,29.91,ENE,69,2.0,5.0,87,0.00,,CLR,0.00,VWS V14.01,2013-09-09 00:15:00,
2013-09-08 19:16:00,68.0,63.7,29.92,East,79,2.0,7.0,86,0.00,,SCT250,0.00,VWS V14.01,2013-09-09 00:16:00,
2013-09-08 19:20:00,67.9,63.6,29.92,ENE,72,3.0,7.0,86,0.00,,CLR,0.00,VWS V14.01,2013-09-09 00:20:00,
2013-09-08 19:21:00,67.9,63.6,29.92,ENE,59,0.0,7.0,86,0.00,,SCT250,0.00,VWS V14.01,2013-09-09 00:21:00,
2013-09-08 19:25:00,67.9,63.6,29.91,East,79,0.0,7.0,86,0.00,,CLR,0.00,VWS V14.01,2013-09-09 00:25:00,
2013-09-08 19:26:00,67.9,63.6,29.91,ENE,66,4.0,7.0,86,0.00,,SCT250,0.00,VWS V14.01,2013-09-09 00:26:00,
2013-09-08 19:30:00,67.9,63.6,29.91,ENE,67,0.0,7.0,86,0.00,,CLR,0.00,VWS V14.01,2013-09-09 00:30:00,
2013-09-08 19:31:00,67.9,63.6,29.91,NE,55,3.0,7.0,86,0.00,,SCT250,0.00,VWS V14.01,2013-09-09 00:31:00,
2013-09-08 19:35:00,67.9,63.9,29.91,ENE,73,4.0,7.0,87,0.00,,CLR,0.00,VWS V14.01,2013-09-09 00:35:00,
2013-09-08 19:36:00,67.9,63.9,29.91,ENE,59,2.0,7.0,87,0.00,,SCT250,0.00,VWS V14.01,2013-09-09 00:36:00,
2013-09-08 19:40:00,67.9,63.9,29.91,ENE,67,0.0,7.0,87,0.00,,CLR,0.00,VWS V14.01,2013-09-09 00:40:00,
2013-09-08 19:41:00,67.8,63.8,29.91,East,80,3.0,7.0,87,0.00,,SCT250,0.00,VWS V14.01,2013-09-09 00:41:00,
2013-09-08 19:45:00,67.9,63.9,29.91,NE,47,0.0,7.0,87,0.00,,CLR,0.00,VWS V14.01,2013-09-09 00:45:00,
2013-09-08 19:46:00,67.9,63.9,29.91,NE,44,0.0,7.0,87,0.00,,SCT250,0.00,VWS V14.01,2013-09-09 00:46:00,
2013-09-08 19:50:00,67.9,63.9,29.91,NE,38,4.0,7.0,87,0.00,,CLR,0.00,VWS V14.01,2013-09-09 00:50:00,
2013-09-08 19:51:00,67.9,63.9,29.91,ENE,65,4.0,8.0,87,0.00,,SCT250,0.00,VWS V14.01,2013-09-09 00:51:00,
2013-09-08 19:55:00,67.9,63.9,29.91,ENE,58,4.0,8.0,87,0.00,,CLR,0.00,VWS V14.01,2013-09-09 00:55:00,
2013-09-08 19:56:00,67.9,63.9,29.91,East,81,7.0,8.0,87,0.00,,SCT250,0.00,VWS V14.01,2013-09-09 00:56:00,
2013-09-08 20:00:00,67.9,63.9,29.91,ENE,58,4.0,8.0,87,0.00,,CLR,0.00,VWS V14.01,2013-09-09 01:00:00,
2013-09-08 20:01:00,67.9,63.9,29.91,ENE,70,0.0,8.0,87,0.00,,SCT250,0.00,VWS V14.01,2013-09-09 01:01:00,
2013-09-08 20:05:00,67.9,63.9,29.91,East,79,0.0,7.0,87,0.00,,CLR,0.00,VWS V14.01,2013-09-09 01:05:00,
2013-09-08 20:06:00,67.9,63.9,29.91,East,80,3.0,9.0,87,0.00,,SCT250,0.00,VWS V14.01,2013-09-09 01:06:00,
2013-09-08 20:10:00,67.9,63.9,29.91,ENE,74,4.0,9.0,87,0.00,,CLR,0.00,VWS V14.01,2013-09-09 01:10:00,
2013-09-08 20:11:00,67.9,63.9,29.91,East,91,6.0,8.0,87,0.00,,SCT250,0.00,VWS V14.01,2013-09-09 01:11:00,
2013-09-08 20:15:00,67.9,63.9,29.90,ENE,76,0.0,9.0,87,0.00,,CLR,0.00,VWS V14.01,2013-09-09 01:15:00,
2013-09-08 20:16:00,67.9,63.9,29.90,ESE,116,0.0,7.0,87,0.00,,SCT250,0.00,VWS V14.01,2013-09-09 01:16:00,
2013-09-08 20:20:00,68.0,64.0,29.89,East,86,0.0,10.0,87,0.00,,CLR,0.00,VWS V14.01,2013-09-09 01:20:00,
2013-09-08 20:21:00,68.1,64.1,29.89,East,92,5.0,9.0,87,0.00,,SCT250,0.00,VWS V14.01,2013-09-09 01:21:00,
2013-09-08 20:25:00,68.1,64.1,29.89,East,79,0.0,8.0,87,0.00,,CLR,0.00,VWS V14.01,2013-09-09 01:25:00,
2013-09-08 20:26:00,68.1,64.4,29.89,East,101,3.0,3.0,88,0.00,,SCT250,0.00,VWS V14.01,2013-09-09 01:26:00,
2013-09-08 20:30:00,68.1,64.1,29.90,ENE,70,5.0,7.0,87,0.00,,CLR,0.00,VWS V14.01,2013-09-09 01:30:00,
2013-09-08 20:31:00,68.1,64.1,29.90,East,92,5.0,9.0,87,0.00,,SCT250,0.00,VWS V14.01,2013-09-09 01:31:00,
2013-09-08 20:35:00,68.1,64.1,29.90,ENE,74,5.0,9.0,87,0.00,,CLR,0.00,VWS V14.01,2013-09-09 01:35:00,
2013-09-08 20:37:00,68.1,64.1,29.90,ENE,67,2.0,8.0,87,0.00,,SCT250,0.00,VWS V14.01,2013-09-09 01:37:00,
2013-09-08 20:40:00,68.1,64.4,29.90,NE,46,4.0,7.0,88,0.00,,CLR,0.00,VWS V14.01,2013-09-09 01:40:00,
2013-09-08 20:42:00,68.1,64.1,29.91,NE,49,2.0,7.0,87,0.00,,SCT250,0.00,VWS V14.01,2013-09-09 01:42:00,
2013-09-08 20:45:00,68.1,64.1,29.91,ENE,67,0.0,8.0,87,0.00,,CLR,0.00,VWS V14.01,2013-09-09 01:45:00,
2013-09-08 20:47:00,68.1,64.1,29.91,ENE,63,0.0,4.0,87,0.00,,SCT250,0.00,VWS V14.01,2013-09-09 01:47:00,
2013-09-08 20:50:00,68.1,64.1,29.92,North,9,0.0,2.0,87,0.00,,CLR,0.00,VWS V14.01,2013-09-09 01:50:00,
2013-09-08 20:52:00,68.1,64.1,29.92,NNE,28,0.0,0.0,87,0.00,,SCT250,0.00,VWS V14.01,2013-09-09 01:52:00,
2013-09-08 20:55:00,68.1,64.1,29.92,NE,48,0.0,0.0,87,0.00,,CLR,0.00,VWS V14.01,2013-09-09 01:55:00,
2013-09-08 20:57:00,68.1,64.1,29.92,NE,34,0.0,5.0,87,0.00,,SCT250,0.00,VWS V14.01,2013-09-09 01:57:00,
2013-09-08 21:00:00,68.1,64.1,29.92,NE,51,0.0,5.0,87,0.00,,CLR,0.00,VWS V14.01,2013-09-09 02:00:00,
2013-09-08 21:02:00,68.1,64.1,29.91,ENE,78,5.0,7.0,87,0.00,,BKN250,0.00,VWS V14.01,2013-09-09 02:02:00,
2013-09-08 21:05:00,68.1,64.1,29.92,ENE,57,0.0,7.0,87,0.00,,CLR,0.00,VWS V14.01,2013-09-09 02:05:00,
2013-09-08 21:07:00,68.1,64.1,29.91,NE,38,6.0,7.0,87,0.00,,BKN250,0.00,VWS V14.01,2013-09-09 02:07:00,
2013-09-08 21:10:00,68.2,64.5,29.92,NE,36,3.0,7.0,88,0.00,,CLR,0.00,VWS V14.01,2013-09-09 02:10:00,
2013-09-08 21:12:00,68.2,64.5,29.91,NE,55,3.0,7.0,88,0.00,,BKN250,0.00,VWS V14.01,2013-09-09 02:12:00,
2013-09-08 21:15:00,68.2,64.5,29.91,NE,43,1.0,6.0,88,0.00,,CLR,0.00,VWS V14.01,2013-09-09 02:15:00,
2013-09-08 21:17:00,68.1,64.4,29.92,NNE,26,5.0,5.0,88,0.00,,BKN250,0.00,VWS V14.01,2013-09-09 02:17:00,
2013-09-08 21:20:00,68.1,64.4,29.92,NNE,29,0.0,7.0,88,0.00,,CLR,0.00,VWS V14.01,2013-09-09 02:20:00,
2013-09-08 21:22:00,68.1,64.1,29.92,NE,51,3.0,7.0,87,0.00,,BKN250,0.00,VWS V14.01,2013-09-09 02:22:00,
2013-09-08 21:25:00,68.2,64.2,29.92,NE,51,4.0,6.0,87,0.00,,CLR,0.00,VWS V14.01,2013-09-09 02:25:00,
2013-09-08 21:27:00,68.2,64.2,29.92,NE,35,7.0,8.0,87,0.00,,BKN250,0.00,VWS V14.01,2013-09-09 02:27:00,
2013-09-08 21:30:00,68.2,64.2,29.92,NE,42,4.0,9.0,87,0.00,,CLR,0.00,VWS V14.01,2013-09-09 02:30:00,
2013-09-08 21:32:00,68.2,64.2,29.92,ENE,58,5.0,9.0,87,0.00,,BKN250,0.00,VWS V14.01,2013-09-09 02:32:00,
2013-09-08 21:35:00,68.2,64.2,29.92,ENE,59,4.0,8.0,87,0.00,,CLR,0.00,VWS V14.01,2013-09-09 02:35:00,
2013-09-08 21:38:00,68.3,64.3,29.92,ENE,57,7.0,10.0,87,0.00,,BKN250,0.00,VWS V14.01,2013-09-09 02:38:00,
2013-09-08 21:40:00,68.3,64.3,29.92,NE,54,7.0,10.0,87,0.00,,CLR,0.00,VWS V14.01,2013-09-09 02:40:00,
2013-09-08 21:43:00,68.3,64.6,29.92,NNE,26,4.0,10.0,88,0.00,,BKN250,0.00,VWS V14.01,2013-09-09 02:43:00,
2013-09-08 21:45:00,68.2,64.5,29.92,NE,53,6.0,10.0,88,0.00,,CLR,0.00,VWS V14.01,2013-09-09 02:45:00,
2013-09-08 21:48:00,68.2,64.5,29.92,NE,41,8.0,9.0,88,0.00,,BKN250,0.00,VWS V14.01,2013-09-09 02:48:00,
2013-09-08 21:50:00,68.2,64.5,29.92,NE,36,5.0,9.0,88,0.00,,CLR,0.00,VWS V14.01,2013-09-09 02:50:00,
2013-09-08 21:53:00,68.2,64.5,29.92,NE,42,5.0,9.0,88,0.00,,BKN250,0.00,VWS V14.01,2013-09-09 02:53:00,
2013-09-08 21:55:00,68.2,64.5,29.92,NE,34,4.0,8.0,88,0.00,,CLR,0.00,VWS V14.01,2013-09-09 02:55:00,
2013-09-08 21:58:00,68.2,64.2,29.92,NNE,32,5.0,9.0,87,0.00,,BKN250,0.00,VWS V14.01,2013-09-09 02:58:00,
2013-09-08 22:00:00,68.2,64.2,29.92,ENE,60,3.0,9.0,87,0.00,,CLR,0.00,VWS V14.01,2013-09-09 03:00:00,
2013-09-08 22:03:00,68.2,64.2,29.93,NE,44,3.0,9.0,87,0.00,,OVC180,0.00,VWS V14.01,2013-09-09 03:03:00,
2013-09-08 22:05:00,68.2,64.2,29.93,NE,46,6.0,11.0,87,0.00,,CLR,0.00,VWS V14.01,2013-09-09 03:05:00,
2013-09-08 22:08:00,68.2,63.9,29.93,NNE,15,5.0,8.0,86,0.00,,OVC180,0.00,VWS V14.01,2013-09-09 03:08:00,
2013-09-08 22:10:00,68.2,63.9,29.93,NE,54,0.0,8.0,86,0.00,,CLR,0.00,VWS V14.01,2013-09-09 03:10:00,
2013-09-08 22:13:00,68.3,64.3,29.93,NE,52,0.0,8.0,87,0.00,,OVC180,0.00,VWS V14.01,2013-09-09 03:13:00,
2013-09-08 22:15:00,68.3,64.3,29.93,NE,36,5.0,8.0,87,0.00,,CLR,0.00,VWS V14.01,2013-09-09 03:15:00,
2013-09-08 22:18:00,68.3,64.3,29.93,NNE,28,6.0,9.0,87,0.00,,OVC180,0.00,VWS V14.01,2013-09-09 03:18:00,
2013-09-08 22:20:00,68.3,64.3,29.93,NNE,30,2.0,8.0,87,0.00,,CLR,0.00,VWS V14.01,2013-09-09 03:20:00,
2013-09-08 22:23:00,68.3,64.3,29.92,ENE,57,3.0,7.0,87,0.00,,OVC180,0.00,VWS V14.01,2013-09-09 03:23:00,
2013-09-08 22:25:00,68.3,64.3,29.93,NE,53,4.0,7.0,87,0.00,,CLR,0.00,VWS V14.01,2013-09-09 03:25:00,
2013-09-08 22:28:00,68.3,64.3,29.93,NE,41,0.0,6.0,87,0.00,,OVC180,0.00,VWS V14.01,2013-09-09 03:28:00,
2013-09-08 22:30:00,68.3,64.3,29.93,NNE,24,3.0,8.0,87,0.00,,CLR,0.00,VWS V14.01,2013-09-09 03:30:00,
2013-09-08 22:33:00,68.3,64.3,29.93,NNE,33,0.0,6.0,87,0.00,,OVC180,0.00,VWS V14.01,2013-09-09 03:33:00,
2013-09-08 22:35:00,68.3,64.3,29.93,NE,41,0.0,6.0,87,0.00,,CLR,0.00,VWS V14.01,2013-09-09 03:35:00,
2013-09-08 22:38:00,68.3,64.3,29.93,NNE,15,0.0,0.0,87,0.00,,OVC180,0.00,VWS V14.01,2013-09-09 03:38:00,
2013-09-08 22:40:00,68.3,64.3,29.93,NNE,33,0.0,0.0,87,0.00,,CLR,0.00,VWS V14.01,2013-09-09 03:40:00,
2013-09-08 22:43:00,68.3,64.3,29.93,NNE,28,0.0,0.0,87,0.00,,OVC180,0.00,VWS V14.01,2013-09-09 03:43:00,
2013-09-08 22:45:00,68.3,64.3,29.93,NNE,28,0.0,0.0,87,0.00,,CLR,0.00,VWS V14.01,2013-09-09 03:45:00,
2013-09-08 22:49:00,68.3,64.3,29.93,NNE,32,0.0,0.0,87,0.00,,OVC180,0.00,VWS V14.01,2013-09-09 03:49:00,
2013-09-08 22:50:00,68.3,64.3,29.93,NNE,32,0.0,0.0,87,0.00,,CLR,0.00,VWS V14.01,2013-09-09 03:50:00,
2013-09-08 22:54:00,68.4,64.4,29.93,NE,38,0.0,0.0,87,0.00,,OVC180,0.00,VWS V14.01,2013-09-09 03:54:00,
2013-09-08 22:55:00,68.4,64.4,29.93,NE,38,0.0,0.0,87,0.00,,CLR,0.00,VWS V14.01,2013-09-09 03:55:00,
2013-09-08 22:59:00,68.4,64.4,29.93,NE,45,0.0,0.0,87,0.00,,OVC180,0.00,VWS V14.01,2013-09-09 03:59:00,
2013-09-08 23:00:00,68.4,64.4,29.93,NE,45,0.0,0.0,87,0.00,,CLR,0.00,VWS V14.01,2013-09-09 04:00:00,
2013-09-08 23:01:00,68.4,64.4,29.93,NE,46,4.0,5.0,87,0.00,,OVC040,0.00,VWS V14.01,2013-09-09 04:01:00,
2013-09-08 23:02:00,68.4,64.4,29.93,NE,50,4.0,5.0,87,0.00,,OVC040,0.00,VWS V14.01,2013-09-09 04:02:00,
2013-09-08 23:03:00,68.4,64.4,29.93,NE,56,4.0,7.0,87,0.00,,OVC040,0.00,VWS V14.01,2013-09-09 04:03:00,
2013-09-08 23:04:00,68.4,64.4,29.93,NNE,22,5.0,7.0,87,0.00,,OVC040,0.00,VWS V14.01,2013-09-09 04:04:00,
2013-09-08 23:05:00,68.4,64.4,29.93,NNE,22,4.0,7.0,87,0.00,,CLR,0.00,VWS V14.01,2013-09-09 04:05:00,
2013-09-08 23:09:00,68.5,64.5,29.93,NE,55,4.0,7.0,87,0.00,,OVC040,0.00,VWS V14.01,2013-09-09 04:09:00,
2013-09-08 23:10:00,68.5,64.5,29.93,ENE,57,4.0,7.0,87,0.00,,CLR,0.00,VWS V14.01,2013-09-09 04:10:00,
2013-09-08 23:14:00,68.6,64.6,29.93,NNE,19,2.0,5.0,87,0.00,,OVC040,0.00,VWS V14.01,2013-09-09 04:14:00,
2013-09-08 23:15:00,68.6,64.6,29.93,NNE,29,3.0,5.0,87,0.00,,CLR,0.00,VWS V14.01,2013-09-09 04:15:00,
2013-09-08 23:19:00,68.5,64.5,29.93,North,9,0.0,3.0,87,0.00,,OVC040,0.00,VWS V14.01,2013-09-09 04:19:00,
2013-09-08 23:20:00,68.5,64.5,29.93,North,9,0.0,3.0,87,0.00,,CLR,0.00,VWS V14.01,2013-09-09 04:20:00,
2013-09-08 23:24:00,68.4,64.4,29.93,NE,49,0.0,0.0,87,0.00,,OVC040,0.00,VWS V14.01,2013-09-09 04:24:00,
2013-09-08 23:25:00,68.4,64.4,29.93,NE,49,0.0,0.0,87,0.00,,CLR,0.00,VWS V14.01,2013-09-09 04:25:00,
2013-09-08 23:29:00,68.4,64.7,29.92,NE,44,4.0,7.0,88,0.00,,OVC040,0.00,VWS V14.01,2013-09-09 04:29:00,
2013-09-08 23:30:00,68.4,64.7,29.92,NE,44,4.0,7.0,88,0.00,,CLR,0.00,VWS V14.01,2013-09-09 04:30:00,
2013-09-08 23:34:00,68.4,64.4,29.92,NE,37,4.0,7.0,87,0.00,,OVC040,0.00,VWS V14.01,2013-09-09 04:34:00,
2013-09-08 23:35:00,68.4,64.4,29.92,NE,38,2.0,7.0,87,0.00,,CLR,0.00,VWS V14.01,2013-09-09 04:35:00,
2013-09-08 23:39:00,68.5,64.5,29.91,East,79,6.0,7.0,87,0.00,,OVC040,0.00,VWS V14.01,2013-09-09 04:39:00,
2013-09-08 23:40:00,68.4,64.4,29.91,ENE,75,7.0,7.0,87,0.00,,CLR,0.00,VWS V14.01,2013-09-09 04:40:00,
2013-09-08 23:44:00,68.4,64.7,29.91,ENE,78,4.0,6.0,88,0.00,,OVC040,0.00,VWS V14.01,2013-09-09 04:44:00,
2013-09-08 23:45:00,68.5,64.8,29.91,ENE,74,4.0,6.0,88,0.00,,CLR,0.00,VWS V14.01,2013-09-09 04:45:00,
2013-09-08 23:49:00,68.4,65.0,29.91,East,81,3.0,3.0,89,0.00,,OVC040,0.00,VWS V14.01,2013-09-09 04:49:00,
2013-09-08 23:50:00,68.4,65.0,29.91,ENE,69,0.0,5.0,89,0.00,,CLR,0.00,VWS V14.01,2013-09-09 04:50:00,
2013-09-08 23:54:00,68.4,65.0,29.91,ENE,75,0.0,5.0,89,0.00,,OVC040,0.00,VWS V14.01,2013-09-09 04:54:00,
2013-09-08 23:55:00,68.4,65.0,29.91,ENE,75,0.0,5.0,89,0.00,,CLR,0.00,VWS V14.01,2013-09-09 04:55:00,
2013-09-08 23:59:00,68.5,65.1,29.91,ENE,77,0.0,0.0,89,0.00,,OVC040,0.00,VWS V14.01,2013-09-09 04:59:00,